{"data":{"norad_id":53233,"epoch":"2026-09-19T23:58:45.679584Z","epoch_age_seconds":118610,"freshness":"FRESH","line1":"1 53233U 22084AW  26262.99913981  .00000415  00000+0  15174-4 0  9990","line2":"2 53233  97.2838 317.7307 0001546  91.8291 268.3129 15.33436550228614","mean_motion":15.3343655,"eccentricity":0.0001546,"inclination_deg":97.2838,"raan_deg":317.7307,"arg_perigee_deg":91.8291,"mean_anomaly_deg":268.3129,"bstar":1.5174e-5,"rev_number":22861,"period_min":93.906722126846,"perigee_km":464.51027900667,"apogee_km":466.62635269033,"semimajor_km":6843.7053158485,"source":"CELESTRAK","updated_at":"2026-09-20T09:00:40.197130Z"}}